Weather History for KMSP - June, 2013

Change the Weather History Date:

Wednesday, June 19, 2013

  Actual Average Record
Temperature  
Mean Temperature 73 °F 70 °F  
Max Temperature 85 °F 80 °F 100 °F (1933)
Min Temperature 61 °F 60 °F 41 °F (1950)
Degree Days  
Heating Degree Days 0 1  
Month to date heating degree days 42 38  
Since 1 June heating degree days 42 38  
Since 1 July heating degree days 7708 7574  
Cooling Degree Days 8 6  
Month to date cooling degree days 51 79  
Year to date cooling degree days 104 121  
Since 1 June cooling degree days 51 79  
Growing Degree Days 22 (Base 50)    
Moisture  
Dew Point 58 °F    
Average Humidity 58    
Maximum Humidity 78    
Minimum Humidity 37    
Precipitation  
Precipitation 0.00 in 0.15 in 4.13 in (2014)
Month to date precipitation 1.40 2.64  
Year to date precipitation 17.09 12.22  
Snow  
Snow 0.00 in 0.00 in 0.00 in ()
Month to date snowfall 0.0 0.0  
Since 1 June snowfall 0.0 0.0  
Since 1 July snowfall 67.7 54.4  
Snow Depth 0.00 in    
Sea Level Pressure  
Sea Level Pressure 30.01 in    
Wind  
Wind Speed 8 mph (SE)    
Max Wind Speed 13 mph    
Max Gust Speed 17 mph    
Visibility 10 miles    
Events      
T = Trace of Precipitation, MM = Missing Value Source: NWS Daily Summary

Daily Weather History Graph

Daily Weather History Graph

Search for Another Location

Airport or City:

Trip Planner

Search our weather history database for the weather conditions in past years. The results will help you decide how hot, cold, wet, or windy it might be!

Date:

Astronomy

Jun. 19, 2013 Rise Set
Actual Time 5:26 AM CDT 9:02 PM CDT
Civil Twilight 4:49 AM CDT 9:39 PM CDT
Nautical Twilight 3:59 AM CDT 10:29 PM CDT
Astronomical Twilight 2:54 AM CDT 11:34 PM CDT
Moon 4:49 PM CDT (6/19) 2:20 AM CDT (6/19)
Length of Visible Light 16h 50m
Length of Day
15h 36m
Waxing Gibbous, 80% of the Moon is Illuminated
Jun 19
Waxing Gibbous
Jun 23
Full
Jun 29
Last Quarter
Jul 8
New
Jul 15
First Quarter

Hourly Weather History & Observations

Time (CDT) Temp. Heat Index Dew Point Humidity Pressure Visibility Wind Dir Wind Speed Gust Speed Precip Events Conditions
12:53 AM 68.0 °F - 57.0 °F 68% 30.04 in 10.0 mi ESE 5.8 mph - N/A   Mostly Cloudy
1:53 AM 66.0 °F - 55.9 °F 70% 30.04 in 10.0 mi ESE 4.6 mph - N/A   Partly Cloudy
2:53 AM 64.0 °F - 55.9 °F 75% 30.03 in 10.0 mi ESE 6.9 mph - N/A   Clear
3:53 AM 63.0 °F - 55.0 °F 75% 30.03 in 10.0 mi SE 3.5 mph - N/A   Clear
4:53 AM 62.1 °F - 55.0 °F 78% 30.03 in 10.0 mi SE 3.5 mph - N/A   Scattered Clouds
5:53 AM 62.1 °F - 55.0 °F 78% 30.06 in 10.0 mi ESE 5.8 mph - N/A   Scattered Clouds
6:53 AM 63.0 °F - 55.9 °F 78% 30.07 in 10.0 mi ESE 5.8 mph - N/A   Scattered Clouds
7:53 AM 66.0 °F - 55.9 °F 70% 30.06 in 10.0 mi South 6.9 mph - N/A   Scattered Clouds
8:53 AM 69.1 °F - 57.9 °F 68% 30.06 in 10.0 mi SSE 6.9 mph - N/A   Scattered Clouds
9:53 AM 72.0 °F - 59.0 °F 64% 30.05 in 10.0 mi South 8.1 mph - N/A   Scattered Clouds
10:53 AM 73.9 °F - 59.0 °F 59% 30.04 in 10.0 mi SSE 6.9 mph - N/A   Mostly Cloudy
11:53 AM 75.9 °F - 61.0 °F 60% 30.03 in 10.0 mi SSE 8.1 mph - N/A   Mostly Cloudy
12:53 PM 78.1 °F - 60.1 °F 54% 30.01 in 10.0 mi ESE 8.1 mph - N/A   Mostly Cloudy
1:53 PM 80.1 °F 81.1 °F 61.0 °F 52% 30.00 in 10.0 mi SE 9.2 mph 16.1 mph N/A   Scattered Clouds
2:53 PM 82.9 °F 82.4 °F 57.0 °F 41% 29.99 in 10.0 mi SSE 6.9 mph 16.1 mph N/A   Scattered Clouds
3:53 PM 84.0 °F 83.0 °F 55.9 °F 38% 29.97 in 10.0 mi SE 9.2 mph - N/A   Scattered Clouds
4:53 PM 82.9 °F 82.0 °F 55.0 °F 38% 29.96 in 10.0 mi SSE 6.9 mph - N/A   Scattered Clouds
5:53 PM 82.9 °F 82.6 °F 57.9 °F 42% 29.95 in 10.0 mi SE 9.2 mph - N/A   Scattered Clouds
6:53 PM 82.9 °F 82.1 °F 55.9 °F 39% 29.95 in 10.0 mi SE 8.1 mph - N/A   Scattered Clouds
7:53 PM 82.0 °F 82.1 °F 59.0 °F 45% 29.94 in 10.0 mi ESE 11.5 mph - N/A   Scattered Clouds
8:53 PM 78.1 °F - 60.1 °F 54% 29.94 in 10.0 mi ESE 11.5 mph - N/A   Mostly Cloudy
9:53 PM 75.9 °F - 60.1 °F 58% 29.95 in 10.0 mi ESE 10.4 mph - N/A   Mostly Cloudy
10:53 PM 73.9 °F - 60.1 °F 62% 29.97 in 10.0 mi SE 8.1 mph - N/A   Mostly Cloudy
11:53 PM 73.0 °F - 59.0 °F 61% 29.97 in 10.0 mi SE 10.4 mph - N/A   Mostly Cloudy